Regional Weather Roundup
Issued by NWS Wakefield, VA

Home | Current Version | Previous Version | Graphics & Text | Print | Product List | Glossary On
Versions: 1 2 3 4 5 6 7 8 9 10 11 12 13 14 15 16 17 18 19 20 21 22 23 24 25 26 27 28 29 30 31 32 33 34 35 36 37 38 39 40 41 42 43 44 45 46
000
ASUS41 KAKQ 252010
RWRAKQ

REGIONAL WEATHER ROUNDUP
NATIONAL WEATHER SERVICE WAKEFIELD VA
300 PM EST THU DEC 25 2014

Note: "fair" indicates few or no clouds below 12,000 feet with no
significant weather and/or obstructions to visibility. * = Denotes
station may not report precipitation (e.g., rain,snow,etc.),
thunder or fog.

VAZ042-051-052>054-056-252100-
NORTHERN VIRGINIA

CITY           SKY/WX    TMP DP  RH WIND       PRES   REMARKS
WASH NATIONAL  MOSUNNY   57  30  35 NW16G25   30.03R
DULLES         MOSUNNY   50  31  48 NW15      30.03R
FORT BELVOIR   SUNNY     55  30  39 NW15      30.03R
QUANTICO       SUNNY     56  29  35 NW13      30.04R
FREDERICKSBRG* SUNNY     57  30  36 NW12G18   30.03R
STAFFORD*      MOSUNNY   55  27  33 W12       30.07R
WARRENTON      SUNNY     58  37  46 NW9       30.02R
CULPEPER*      SUNNY     57  28  33 NW8       30.03R
MANASSAS*      NOT AVBL
LEESBURG*      SUNNY     52  34  50 NW18G28   30.03R
WINCHESTER     SUNNY     50  28  43 NW14      30.03R
FRONT ROYAL*   CLEAR     50  30  46 W8        30.03R
LURAY*         CLEAR     54  32  43 W5        30.04R
$$

VAZ048-049-060>072-079>083-252100-
CENTRAL AND SOUTH CENTRAL VIRGINIA

CITY           SKY/WX    TMP DP  RH WIND       PRES   REMARKS
RICHMOND       MOSUNNY   58  30  34 W13       30.04R
CHESTERFIELD*  CLEAR     55  28  35 NW13      30.06R
PETERSBURG*    SUNNY     57  29  34 W10G17    30.06R
HANOVER        SUNNY     56  32  40 NW8       30.05R
TAPPAHANNOCK*  SUNNY     57  25  29 W9        30.03R
QUINTON*       CLEAR     56  32  40 NW9G17    30.03R
CHARLOTTSVILLE SUNNY     55  28  35 NW7       30.03R
GORDONSVILLE*  CLEAR     55  30  38 W5        30.03R
ORANGE*        SUNNY     55  32  41 SW10      30.05R
LOUISA*        SUNNY     57  30  35 W6G18     30.03R
BUMPASS*       CLEAR     55  31  40 NW6       30.04R
FARMVILLE*     SUNNY     58  31  35 W8        30.05R
CREWE*         CLEAR     55  29  37 W8        30.05R
FORT PICKETT*  CLEAR     54  32  42 W12G20    30.06R
CHASE CITY*    CLEAR     56  34  43 W6        30.07R
CLARKSVILLE*   CLEAR     54  32  43 W10G17    30.07R
SOUTH HILL*    SUNNY     54  31  42 NW7       30.12R
LAWRENCEVILLE* CLEAR     54  34  47 W5        30.06R
EMPORIA*       SUNNY     54  34  47 W12G17    30.08R
$$

VAZ088>098-252100-
SOUTHEAST VIRGINIA

CITY           SKY/WX    TMP DP  RH WIND       PRES   REMARKS
NORFOLK        SUNNY     58  34  40 NW10      30.03R
VIRGINIA BEACH SUNNY     57  37  47 W10       30.02R
NORFOLK NAVAL  SUNNY     60  36  40 W12       30.05R
WEST POINT*    SUNNY     59  29  31 W12       30.04R
SALUDA*        FAIR      55  33  43 NW9       30.01R
NEWPORT NEWS   SUNNY     60  35  39 W13       30.03R
LANGLEY AFB    SUNNY     57  36  46 W10       30.03R
FORT EUSTIS    SUNNY     56  56  98 NW10      30.02R
WILLIAMSBURG*  SUNNY     61  36  39 NW12G20   30.04R
HR EXEC AP*    CLEAR     57  37  47 NW12G20   30.06R
FRANKLIN*      SUNNY     57  36  44 NW14G21   30.05R
WAKEFIELD      SUNNY     57  32  38 VRB5      30.05R
$$

VAZ020-022-025-037-045-252100-
WEST CENTRAL AND SOUTHWEST VIRGINIA

CITY           SKY/WX    TMP DP  RH WIND       PRES   REMARKS
STAUNTON*      SUNNY     51  28  41 W13       30.07R
WAYNESBORO*    CLEAR     48  29  47 W12G20    30.05R
HOT SPRINGS VA CLOUDY    33  28  80 W17G26    30.00R WCI  22
LYNCHBURG      SUNNY     51  30  44 W8        30.09R
DANVILLE       SUNNY     55  31  39 W12       30.10R
SOUTH BOSTON*  CLEAR     55  31  39 W8        30.09R
MARTINSVILLE   SUNNY     55  31  41 NW6       30.12R
ROANOKE        MOSUNNY   49  29  46 NW21G26   30.12R
BLACKSBURG     PTSUNNY   43  29  58 W9G23     30.13R
DUBLIN*        MOSUNNY   45  32  60 NW15      30.12R
MARION*        PTSUNNY   44  31  59 W13G18    30.12F
HILLSVILLE*    SUNNY     42  29  62 NW16G23   30.09R
RICHLANDS*     CLOUDY    41  29  63 SW9       30.12S
WISE*          PTSUNNY   43  30  61 W6        30.12F
ABINGDON*      CLOUDY    46  32  58 W7        30.15S
$$

MDZ021>025-VAZ099-100-252100-
SOUTHERN MARYLAND AND THE DELMARVA PENINSULA

CITY           SKY/WX    TMP DP  RH WIND       PRES   REMARKS
PATUXENT RIVER SUNNY     55  30  38 W14       30.01R
BAY BRIDGE APT   N/A     52  30  43 W16G26    30.00R
LEONARDTOWN    SUNNY     54  28  37 NW9       30.02
DOVER          PTSUNNY   53  28  38 W18G25    29.95R
GEORGETOWN     MOSUNNY   53  29  39 NW14G23   29.99R
EASTON         NOT AVBL
CAMBRIDGE      SUNNY     54  32  43 NW10G20   30.00R
SALISBURY      SUNNY     56  30  37 NW13G28   30.00R
OCEAN CITY     SUNNY     53  30  41 NW12G26   29.99R
WALLOPS ISLAND SUNNY     54  32  43 NW13G23   30.01R
ACCOMACK*      SUNNY     54  32  43 NW10      30.02R
$$

NCZ012>017-030>032-252100-
NORTH CENTRAL AND EASTERN NORTH CAROLINA

CITY           SKY/WX    TMP DP  RH WIND       PRES   REMARKS
ROANOKE RAPIDS CLEAR     54  32  43 NW10G17   30.07R
RALEIGH        SUNNY     56  32  40 VRB6      30.09R
ELIZABETH CITY SUNNY     61  38  42 NW15      30.04R
AHOSKIE*       SUNNY     56  35  46 W6        30.07R
EDENTON*       SUNNY     58  39  49 NW14G20   30.05R
CURRITUCK*     SUNNY     58  35  40 W10G17    30.04R
KILL DEVIL HLS SUNNY     56  42  60 W6        30.03R
MANTEO         SUNNY     55  39  54 W7        30.05R
CAPE HATTERAS  PTSUNNY   57  44  62 NW6       30.05R
TARBORO*       CLEAR     60  37  43 NW15G21   30.08R
GOLDSBORO      SUNNY     60  40  47 W10       30.06R
WASHINGTON     SUNNY     58  39  48 NW10G16   30.06R
GREENVILLE     SUNNY     59  36  41 NW10      30.08R
NEW BERN       SUNNY     62  38  40 W13       30.07R
WILMINGTON     SUNNY     61  43  51 W12       30.08R
$$

VAZ048-252100-
ELSEWHERE

CITY           SKY/WX    TMP DP  RH WIND       PRES   REMARKS
HARRISBURG PA  PTSUNNY   48  30  49 W21G29    29.98R
BALTIMORE      MOSUNNY   52  31  44 W18G26    30.00R
ANNAPOLIS      PTSUNNY   53  30  41 W15G22    30.00R
ANDREWS AFB    SUNNY     53  31  43 NW15      30.01R
PHILADELPHIA   PTSUNNY   52  29  41 NW20      29.96R
HENDERSON NC   SUNNY     55  30  38 NW9       30.08R
GREENSBORO     SUNNY     53  31  42 NW12      30.10R
ROCKY MOUNT      N/A     58  33  39 W10       30.08R
$$

VAZ100-252100-
MARINE

STATION/POSITION TIME  TEMP    WIND        PRES    WAVE   SWELL
                       AIR SEA DIR/SP/G            HT/PER HT/PER
                 (UTC) (F)     (DEG/KT/KT) (MB)    (FT/S) (FT/S)
CAPE MAY NJ      2000   49 47  320/  5/ 16 1014.3R
LEWES DE         2000   51 45  310/ 20/ 22 1014.8R
15NM E FENWICK I 2000   49 46              1014.6R   5/ 8
OCEAN-CITY-INLET 2000   53 45  340/ 22/ 29 1014.8R
WACHAPREAGUE VA  2000   55 49  290/  4/  7 1016.2R
THOMAS POINT MD  2000   52 43  310/ 17/ 20 1017.0R
GOOSES REEF MD   2000   50     VRB 14/ 17  1015.0R
COVE POINT MD    2000   52     340/ 14/ 17 1015.8R
SOLOMONS ISLAND  2000      44                N/A
BISHOPS HEAD MD  2000   52 47  310/ 12/ 15 1015.6R
PINEY POINT MD   2000          340/ 11/ 11   N/A
POTOMAC MD       2000   50     320/  8/ 10 1015.2R
CAMBRIDGE MD     2000   51 42  300/ 10/ 15 1015.8R
LEWISETTA VA     2000   53 44  350/  9/ 12 1015.9R
RAPPAHANNOCK LGT 2000          330/ 10/ 12 1017.0R
STINGRAY PT      2000   51     310/ 10/ 12 1017.0R
YORK RVR RNG VA  2000   54     310/ 14/ 15 1015.9R
YORKTOWN VA      2000   54 46  320/ 11/ 12 1016.1R
JAMESTOWN VA     2000   51     310/ 10/ 12   N/A
DOMINION TERM VA 2000   53     330/ 10/ 12 1016.6R
KIPTOPEKE VA     2000      51  300/ 10/ 11   N/A
CHES BAY BRIDGE  2000   52 46  260/ 12/ 13 1016.1R
CAPE HENRY VA    2000   55     280/  9/ 15 1015.3R
CHESAPEAKE LGHT  1900   54     300/ 16/ 17 1016.4R
WILLOUBY STN VA  2000   54     290/ 13/ 15 1017.3R
S CRANEY ISL VA  2000          290/  9/ 13 1016.8R
CAPE HENRY BUOY  2000      49                N/A     3/ 8
1ST LANDING BUOY 2000   52     290/ 10/ 10 1016.1R
CAPE CHARLES BUO 2000      48                N/A     2/ 9   2/ 9
64NM E OF VA BCH 2000   53 53  330/  8/ 10 1016.3R   5/ 8   5/ 8
DUCK PIER NC     2000   56 50  290/ 11/ 12 1016.0R
44100 DUCK FRF   2000      51                N/A     3/ 9
44056 DUCK FRF   2000      51                N/A     2/10
OREGON INLET NC  2000   56 54  300/ 10/ 14 1017.0R
HATTERAS NC      2000   55 58  330/ 10/ 12 1017.8R
DIAMOND SHLS NC  2000   58                 1017.5R   6/ 9
CAPE LOOKOUT NC  1900   56     260/  9/ 11 1017.1R
$$


USA.gov is the U.S. government's official web portal to all federal, state and local government web resources and services.